Burnet, TX

1:52 AM CDT on June 24, 2017 (GMT -0500)
Burnet Municipal-Craddock

Weather History for KBMQ - October, 2013

Change the Weather History Date:

Tuesday, October 8, 2013

  Actual Average Record
Temperature  
Mean Temperature 68 °F -  
Max Temperature 82 °F 77 °F 88 °F (2014)
Min Temperature 53 °F 58 °F 41 °F (2000)
Cooling Degree Days 2    
Growing Degree Days 18 (Base 50)    
Moisture  
Dew Point 45 °F    
Average Humidity 46    
Maximum Humidity 71    
Minimum Humidity 26    
Precipitation  
Precipitation 0.00 in - - ()
Sea Level Pressure  
Sea Level Pressure 30.04 in    
Wind  
Wind Speed 3 mph (SE)    
Max Wind Speed 9 mph    
Max Gust Speed -    
Visibility 10 miles    
Events      
Averages and records for this station are not official NWS values.
T = Trace of Precipitation, MM = Missing Value Source: NWS Daily Summary

Daily Weather History Graph

Daily Weather History Graph

Search for Another Location

Airport or City:

Trip Planner

Search our weather history database for the weather conditions in past years. The results will help you decide how hot, cold, wet, or windy it might be!

Date:

Astronomy

Oct. 08, 2013 Rise Set
Actual Time 7:31 AM CDT 7:09 PM CDT
Civil Twilight 7:06 AM CDT 7:33 PM CDT
Nautical Twilight 6:38 AM CDT 8:01 PM CDT
Astronomical Twilight 6:10 AM CDT 8:29 PM CDT
Moon 11:11 AM CDT (10/8) 10:02 PM CDT (10/8)
Length of Visible Light 12h 26m
Length of Day
11h 38m
Waxing Crescent, 16% of the Moon is Illuminated
Oct 8
Waxing Crescent
Oct 11
First Quarter
Oct 18
Full
Oct 26
Last Quarter
Nov 3
New

Hourly Weather History & Observations

Time (CDT) Temp. Dew Point Humidity Pressure Visibility Wind Dir Wind Speed Gust Speed Precip Events Conditions
12:53 AM 61.0 °F 43.0 °F 52% 30.08 in 10.0 mi Calm Calm - N/A   Clear
1:53 AM 57.0 °F 45.0 °F 64% 30.08 in 10.0 mi Calm Calm - N/A   Clear
2:53 AM 57.9 °F 43.0 °F 58% 30.07 in 10.0 mi NE 3.5 mph - N/A   Clear
3:53 AM 57.9 °F 43.0 °F 58% 30.06 in 10.0 mi Calm Calm - N/A   Clear
4:53 AM 55.0 °F 44.1 °F 67% 30.06 in 10.0 mi Calm Calm - N/A   Clear
5:53 AM 54.0 °F 44.1 °F 69% 30.07 in 10.0 mi NNE 4.6 mph - N/A   Clear
6:53 AM 53.1 °F 44.1 °F 71% 30.08 in 10.0 mi Calm Calm - N/A   Clear
7:53 AM 54.0 °F 44.1 °F 69% 30.09 in 10.0 mi Calm Calm - N/A   Clear
8:53 AM 63.0 °F 46.9 °F 56% 30.09 in 8.0 mi Calm Calm - N/A   Clear
9:53 AM 68.0 °F 46.9 °F 47% 30.10 in 10.0 mi Variable 3.5 mph - N/A   Clear
10:53 AM 73.0 °F 45.0 °F 37% 30.09 in 10.0 mi SSE 4.6 mph - N/A   Clear
11:53 AM 75.9 °F 45.0 °F 33% 30.08 in 10.0 mi South 6.9 mph - N/A   Clear
12:53 PM 78.1 °F 44.1 °F 30% 30.06 in 10.0 mi SSE 9.2 mph - N/A   Clear
1:53 PM 80.1 °F 44.1 °F 28% 30.03 in 10.0 mi South 8.1 mph - N/A   Clear
2:53 PM 82.0 °F 44.1 °F 26% 30.01 in 10.0 mi SSE 6.9 mph - N/A   Clear
3:53 PM 82.0 °F 44.1 °F 26% 29.99 in 10.0 mi SE 6.9 mph - N/A   Clear
4:53 PM 82.0 °F 44.1 °F 26% 29.99 in 10.0 mi Variable 6.9 mph - N/A   Clear
5:53 PM 80.1 °F 45.0 °F 29% 29.98 in 10.0 mi SSE 5.8 mph - N/A   Clear
6:53 PM 75.0 °F 48.0 °F 38% 29.99 in 10.0 mi SE 5.8 mph - N/A   Clear
7:53 PM 72.0 °F 48.0 °F 43% 29.99 in 10.0 mi SE 4.6 mph - N/A   Clear
8:53 PM 71.1 °F 46.0 °F 41% 29.99 in 10.0 mi SE 4.6 mph - N/A   Clear
9:53 PM 69.1 °F 46.9 °F 45% 30.01 in 10.0 mi SSE 3.5 mph - N/A   Clear
10:53 PM 68.0 °F 46.9 °F 47% 30.00 in 10.0 mi South 3.5 mph - N/A   Clear
11:53 PM 64.9 °F 48.0 °F 54% 29.99 in 10.0 mi Calm Calm - N/A   Clear